,,,PA_Meas_PMT16A,,PR_Meas_QMR101_102,,RH_Meas_QMH101,,SR_Meas_QMS101,,TA_Meas_QMH101,,GenWind,,GenWind,
date,time,status,PA,status,PR,status,RH,status,SR,status,TA,status,DirAvg,status,SpdAvg,
2010-08-10, 00:00:04,VALID,1002.49,VALID,0,VALID,90.3881,VALID,0,VALID,22.9793,VALID,98,VALID,0,
2010-08-10, 00:01:04,VALID,1002.47,VALID,0,VALID,90.6323,VALID,0,VALID,22.9793,VALID,98,VALID,0,
2010-08-10, 00:02:04,VALID,1002.46,VALID,0,VALID,90.6323,VALID,0,VALID,22.9793,VALID,98,VALID,0,
2010-08-10, 00:03:04,VALID,1002.46,VALID,0,VALID,90.4568,VALID,0,VALID,22.9403,VALID,98,VALID,0,
2010-08-10, 00:04:04,VALID,1002.45,VALID,0,VALID,90.205,VALID,0,VALID,22.9615,VALID,100,VALID,0,
2010-08-10, 00:05:04,VALID,1002.43,VALID,0,VALID,89.8922,VALID,0,VALID,22.9403,VALID,100,VALID,0,
2010-08-10, 00:06:04,VALID,1002.42,VALID,0,VALID,89.3734,VALID,0.112286,VALID,22.9385,VALID,100,VALID,0,
2010-08-10, 00:07:04,VALID,1002.41,VALID,0,VALID,89.0834,VALID,0,VALID,22.9793,VALID,100,VALID,0,
2010-08-10, 00:08:04,VALID,1002.42,VALID,0,VALID,88.8088,VALID,0,VALID,22.9581,VALID,100,VALID,0,
2010-08-10, 00:09:04,VALID,1002.4,VALID,0,VALID,88.6638,VALID,0,VALID,22.9776,VALID,100,VALID,0,
2010-08-10, 00:10:04,VALID,1002.37,VALID,0,VALID,88.3663,VALID,0.112286,VALID,22.9776,VALID,135,VALID,0,
2010-08-10, 00:11:04,VALID,1002.37,VALID,0,VALID,87.6949,VALID,0,VALID,22.9758,VALID,145,VALID,0.942578,
2010-08-10, 00:12:04,VALID,1002.35,VALID,0,VALID,87.2142,VALID,0.112286,VALID,23.0361,VALID,138,VALID,0.961328,
2010-08-10, 00:13:04,VALID,1002.32,VALID,0,VALID,86.6877,VALID,0.112286,VALID,23.0556,VALID,160,VALID,1.08242,
2010-08-10, 00:14:04,VALID,1002.28,VALID,0,VALID,86.7183,VALID,0,VALID,23.0751,VALID,154,VALID,0.719922,
2010-08-10, 00:15:04,VALID,1002.26,VALID,0,VALID,86.6954,VALID,0,VALID,23.0946,VALID,148,VALID,0.684766,
2010-08-10, 00:16:04,VALID,1002.22,VALID,0,VALID,86.7488,VALID,0.112286,VALID,23.0946,VALID,159,VALID,0.773047,
2010-08-10, 00:17:04,VALID,1002.22,VALID,0,VALID,86.3139,VALID,0,VALID,23.1336,VALID,179,VALID,0.817187,
2010-08-10, 00:18:04,VALID,1002.22,VALID,0,VALID,86.3597,VALID,0,VALID,23.1921,VALID,183,VALID,0.624219,
2010-08-10, 00:19:04,VALID,1002.21,VALID,0,VALID,85.734,VALID,0,VALID,23.1921,VALID,179,VALID,0.691797,
2010-08-10, 00:20:04,VALID,1002.18,VALID,0,VALID,85.6043,VALID,0,VALID,23.2312,VALID,165,VALID,0.81875,
2010-08-10, 00:21:04,VALID,1002.18,VALID,0,VALID,85.3907,VALID,0,VALID,23.2719,VALID,154,VALID,0.488281,
2010-08-10, 00:22:04,VALID,1002.19,VALID,0,VALID,85.4975,VALID,0,VALID,23.2915,VALID,154,VALID,0.301172,
2010-08-10, 00:23:04,VALID,1002.16,VALID,0,VALID,85.6196,VALID,0,VALID,23.2915,VALID,154,VALID,0.421875,
2010-08-10, 00:24:04,VALID,1002.16,VALID,0,VALID,85.7035,VALID,0,VALID,23.2915,VALID,154,VALID,0.404297,
2010-08-10, 00:25:04,VALID,1002.12,VALID,0,VALID,85.5433,VALID,0,VALID,23.2915,VALID,154,VALID,0.316016,
2010-08-10, 00:26:04,VALID,1002.1,VALID,0,VALID,85.5357,VALID,0,VALID,23.2915,VALID,154,VALID,0.386328,
2010-08-10, 00:27:04,VALID,1002.14,VALID,0,VALID,85.5204,VALID,0,VALID,23.2915,VALID,154,VALID,0.534375,
2010-08-10, 00:28:04,VALID,1002.1,VALID,0,VALID,85.055,VALID,0,VALID,23.2915,VALID,154,VALID,0.515625,
2010-08-10, 00:29:04,VALID,1002.07,VALID,0,VALID,84.8261,VALID,0,VALID,23.311,VALID,154,VALID,0.425781,
2010-08-10, 00:30:04,VALID,1002.04,VALID,0,VALID,85.3602,VALID,0,VALID,23.35,VALID,154,VALID,0.419531,
2010-08-10, 00:31:04,VALID,1002.04,VALID,0,VALID,84.437,VALID,0,VALID,23.35,VALID,154,VALID,0.444141,
2010-08-10, 00:32:04,VALID,1002.02,VALID,0,VALID,84.498,VALID,0,VALID,23.3695,VALID,154,VALID,0.144922,
2010-08-10, 00:33:04,VALID,1001.98,VALID,0,VALID,84.7727,VALID,0,VALID,23.389,VALID,154,VALID,0,
2010-08-10, 00:34:04,VALID,1001.98,VALID,0,VALID,84.7498,VALID,0,VALID,23.3695,VALID,153,VALID,0,
2010-08-10, 00:35:04,VALID,1001.94,VALID,0,VALID,84.5743,VALID,0,VALID,23.3695,VALID,153,VALID,0,
2010-08-10, 00:36:04,VALID,1001.95,VALID,0,VALID,84.6125,VALID,0,VALID,23.3695,VALID,144,VALID,0.199609,
2010-08-10, 00:37:04,VALID,1001.91,VALID,0,VALID,84.2997,VALID,0,VALID,23.35,VALID,126,VALID,0.834766,
2010-08-10, 00:38:04,VALID,1001.91,VALID,0,VALID,84.0098,VALID,0,VALID,23.3695,VALID,131,VALID,0.673047,
2010-08-10, 00:39:04,VALID,1001.9,VALID,0,VALID,84.0479,VALID,0,VALID,23.4085,VALID,115,VALID,1.05234,
2010-08-10, 00:40:04,VALID,1001.88,VALID,0,VALID,84.0784,VALID,0,VALID,23.4085,VALID,117,VALID,0.614062,
2010-08-10, 00:41:04,VALID,1001.85,VALID,0,VALID,84.3455,VALID,0,VALID,23.4298,VALID,116,VALID,0.810156,
2010-08-10, 00:42:04,VALID,1001.84,VALID,0,VALID,84.3073,VALID,0,VALID,23.428,VALID,118,VALID,0.833594,
2010-08-10, 00:43:04,VALID,1001.85,VALID,0,VALID,84.2157,VALID,0,VALID,23.428,VALID,118,VALID,0.627734,
2010-08-10, 00:44:04,VALID,1001.81,VALID,0,VALID,84.17,VALID,0,VALID,23.4085,VALID,115,VALID,0.955469,
2010-08-10, 00:45:04,VALID,1001.82,VALID,0,VALID,84.6277,VALID,0,VALID,23.389,VALID,114,VALID,0.752344,
2010-08-10, 00:46:04,VALID,1001.8,VALID,0,VALID,84.8643,VALID,0,VALID,23.35,VALID,114,VALID,0.617969,
2010-08-10, 00:47:04,VALID,1001.78,VALID,0,VALID,85.3068,VALID,0,VALID,23.3305,VALID,114,VALID,0.475,
2010-08-10, 00:48:04,VALID,1001.77,VALID,0,VALID,85.261,VALID,0,VALID,23.2915,VALID,114,VALID,0.605078,
2010-08-10, 00:49:04,VALID,1001.75,VALID,0,VALID,85.4975,VALID,0,VALID,23.2932,VALID,114,VALID,0.346094,
2010-08-10, 00:50:04,VALID,1001.75,VALID,0,VALID,85.9858,VALID,0,VALID,23.2524,VALID,114,VALID,0.249609,
2010-08-10, 00:51:04,VALID,1001.74,VALID,0,VALID,86.146,VALID,0,VALID,23.2524,VALID,114,VALID,0.245703,
2010-08-10, 00:52:04,VALID,1001.71,VALID,0,VALID,86.5199,VALID,0,VALID,23.2347,VALID,114,VALID,0.242188,
2010-08-10, 00:53:04,VALID,1001.72,VALID,0,VALID,86.6115,VALID,0,VALID,23.1939,VALID,114,VALID,0.479688,
2010-08-10, 00:54:04,VALID,1001.72,VALID,0,VALID,86.5962,VALID,0,VALID,23.1744,VALID,114,VALID,0.665625,
2010-08-10, 00:55:04,VALID,1001.67,VALID,0,VALID,86.4436,VALID,0,VALID,23.1957,VALID,114,VALID,0.617578,
2010-08-10, 00:56:04,VALID,1001.65,VALID,0,VALID,86.2605,VALID,0,VALID,23.1744,VALID,114,VALID,0.567578,
2010-08-10, 00:57:04,VALID,1001.64,VALID,0,VALID,86.3292,VALID,0,VALID,23.1726,VALID,114,VALID,0.569141,
2010-08-10, 00:58:04,VALID,1001.61,VALID,0,VALID,86.6038,VALID,0,VALID,23.1939,VALID,114,VALID,0.478906,
2010-08-10, 00:59:04,VALID,1001.6,VALID,0,VALID,86.1842,VALID,0,VALID,23.1744,VALID,114,VALID,0.404687,
2010-08-10, 01:00:04,VALID,1001.57,VALID,0,VALID,86.0392,VALID,0,VALID,23.1744,VALID,114,VALID,0.405078,
2010-08-10, 01:01:04,VALID,1001.55,VALID,0,VALID,85.7112,VALID,0,VALID,23.1939,VALID,114,VALID,0.337891,
2010-08-10, 01:02:04,VALID,1001.53,VALID,0,VALID,85.6425,VALID,0,VALID,23.2329,VALID,114,VALID,0.259375,
2010-08-10, 01:03:04,VALID,1001.51,VALID,0,VALID,85.5662,VALID,0,VALID,23.2542,VALID,114,VALID,0.148828,
2010-08-10, 01:04:04,VALID,1001.53,VALID,0,VALID,85.5662,VALID,0,VALID,23.2134,VALID,114,VALID,0.192969,
2010-08-10, 01:05:04,VALID,1001.51,VALID,0,VALID,85.5357,VALID,0,VALID,23.2329,VALID,114,VALID,0.130859,
2010-08-10, 01:06:04,VALID,1001.55,VALID,0,VALID,85.7112,VALID,0,VALID,23.2329,VALID,114,VALID,0.360938,
2010-08-10, 01:07:04,VALID,1001.51,VALID,0,VALID,85.612,VALID,0,VALID,23.2524,VALID,116,VALID,0.510938,
2010-08-10, 01:08:04,VALID,1001.48,VALID,0,VALID,85.9019,VALID,0,VALID,23.2524,VALID,116,VALID,0.477344,
2010-08-10, 01:09:04,VALID,1001.5,VALID,0,VALID,85.7951,VALID,0,VALID,23.2524,VALID,116,VALID,0.6,
2010-08-10, 01:10:04,VALID,1001.47,VALID,0,VALID,85.6654,VALID,0,VALID,23.2524,VALID,122,VALID,0.700391,
2010-08-10, 01:11:04,VALID,1001.47,VALID,0,VALID,85.612,VALID,0,VALID,23.2719,VALID,128,VALID,0.642969,
2010-08-10, 01:12:04,VALID,1001.46,VALID,0,VALID,85.6501,VALID,0,VALID,23.2524,VALID,129,VALID,0.798437,
2010-08-10, 01:13:04,VALID,1001.45,VALID,0,VALID,85.7569,VALID,0,VALID,23.2507,VALID,133,VALID,0.702734,
2010-08-10, 01:14:04,VALID,1001.42,VALID,0,VALID,85.818,VALID,0,VALID,23.2915,VALID,136,VALID,0.771094,
2010-08-10, 01:15:04,VALID,1001.39,VALID,0,VALID,85.9553,VALID,0,VALID,23.2719,VALID,144,VALID,0.704297,
2010-08-10, 01:16:04,VALID,1001.43,VALID,0,VALID,85.8485,VALID,0,VALID,23.2915,VALID,144,VALID,0.585156,
2010-08-10, 01:17:04,VALID,1001.39,VALID,0,VALID,85.9324,VALID,0,VALID,23.2719,VALID,144,VALID,0.460547,
2010-08-10, 01:18:04,VALID,1001.4,VALID,0,VALID,85.9934,VALID,0,VALID,23.2702,VALID,144,VALID,0.547266,
2010-08-10, 01:19:04,VALID,1001.42,VALID,0,VALID,86.0087,VALID,0,VALID,23.2915,VALID,144,VALID,0.494141,
2010-08-10, 01:20:04,VALID,1001.39,VALID,0,VALID,86.0697,VALID,0,VALID,23.2915,VALID,144,VALID,0.046875,
2010-08-10, 01:21:04,VALID,1001.4,VALID,0,VALID,86.1613,VALID,0,VALID,23.2702,VALID,144,VALID,0.277344,
2010-08-10, 01:22:04,VALID,1001.42,VALID,0,VALID,86.0774,VALID,0,VALID,23.2719,VALID,144,VALID,0.289063,
2010-08-10, 01:23:04,VALID,1001.4,VALID,0,VALID,86.0697,VALID,0,VALID,23.2915,VALID,134,VALID,0.695313,
2010-08-10, 01:24:04,VALID,1001.4,VALID,0,VALID,86.0316,VALID,0,VALID,23.2915,VALID,134,VALID,0.243359,
2010-08-10, 01:25:04,VALID,1001.39,VALID,0,VALID,85.9553,VALID,0,VALID,23.311,VALID,144,VALID,0.605078,
2010-08-10, 01:26:04,VALID,1001.41,VALID,0,VALID,85.9706,VALID,0,VALID,23.3305,VALID,139,VALID,0.686328,
2010-08-10, 01:27:04,VALID,1001.39,VALID,0,VALID,85.6806,VALID,0,VALID,23.35,VALID,161,VALID,0.739453,
2010-08-10, 01:28:04,VALID,1001.35,VALID,0,VALID,85.4594,VALID,0,VALID,23.389,VALID,148,VALID,1.11602,
2010-08-10, 01:29:04,VALID,1001.35,VALID,0,VALID,85.3907,VALID,0,VALID,23.428,VALID,149,VALID,0.889844,
2010-08-10, 01:30:04,VALID,1001.34,VALID,0,VALID,85.2763,VALID,0,VALID,23.4671,VALID,167,VALID,0.649219,
2010-08-10, 01:31:04,VALID,1001.31,VALID,0,VALID,85.4136,VALID,0,VALID,23.4671,VALID,150,VALID,0.592578,
2010-08-10, 01:32:04,VALID,1001.31,VALID,0,VALID,85.116,VALID,0,VALID,23.4866,VALID,150,VALID,0.841406,
2010-08-10, 01:33:04,VALID,1001.3,VALID,0,VALID,85.1771,VALID,0,VALID,23.5061,VALID,142,VALID,0.925,
2010-08-10, 01:34:04,VALID,1001.3,VALID,0,VALID,85.3983,VALID,0,VALID,23.5061,VALID,132,VALID,0.899609,
2010-08-10, 01:35:04,VALID,1001.31,VALID,0,VALID,85.5433,VALID,0,VALID,23.4671,VALID,134,VALID,0.729688,
2010-08-10, 01:36:04,VALID,1001.29,VALID,0,VALID,85.8409,VALID,0,VALID,23.4475,VALID,134,VALID,0.563672,
2010-08-10, 01:37:04,VALID,1001.31,VALID,0,VALID,85.9934,VALID,0,VALID,23.4067,VALID,134,VALID,0.369531,
2010-08-10, 01:38:04,VALID,1001.3,VALID,0,VALID,86.2071,VALID,0,VALID,23.4085,VALID,134,VALID,0.406641,
2010-08-10, 01:39:04,VALID,1001.25,VALID,0,VALID,86.5504,VALID,0,VALID,23.3677,VALID,134,VALID,0.264453,
2010-08-10, 01:40:04,VALID,1001.25,VALID,0,VALID,86.7183,VALID,0,VALID,23.35,VALID,134,VALID,0.101172,
2010-08-10, 01:41:04,VALID,1001.26,VALID,0,VALID,86.9472,VALID,0,VALID,23.3305,VALID,134,VALID,0,
2010-08-10, 01:42:04,VALID,1001.24,VALID,0,VALID,87.0997,VALID,0,VALID,23.311,VALID,134,VALID,0,
2010-08-10, 01:43:04,VALID,1001.22,VALID,0,VALID,87.1837,VALID,0,VALID,23.2719,VALID,134,VALID,0,
2010-08-10, 01:44:04,VALID,1001.24,VALID,0,VALID,87.2676,VALID,0,VALID,23.2542,VALID,134,VALID,0,
2010-08-10, 01:45:04,VALID,1001.18,VALID,0,VALID,87.3057,VALID,0,VALID,23.2134,VALID,134,VALID,0,
2010-08-10, 01:46:04,VALID,1001.19,VALID,0,VALID,87.3439,VALID,0,VALID,23.1939,VALID,134,VALID,0,
2010-08-10, 01:47:04,VALID,1001.14,VALID,0,VALID,87.3668,VALID,0,VALID,23.1744,VALID,134,VALID,0,
2010-08-10, 01:48:04,VALID,1001.12,VALID,0,VALID,87.7864,VALID,0,VALID,23.1336,VALID,134,VALID,0,
2010-08-10, 01:49:04,VALID,1001.11,VALID,0,VALID,88,VALID,0,VALID,23.1336,VALID,134,VALID,0,
2010-08-10, 01:50:04,VALID,1001.09,VALID,0,VALID,88.1297,VALID,0,VALID,23.1354,VALID,134,VALID,0,
2010-08-10, 01:51:04,VALID,1001.08,VALID,0,VALID,88.2137,VALID,0,VALID,23.1159,VALID,134,VALID,0,
2010-08-10, 01:52:04,VALID,1001.04,VALID,0,VALID,88.3434,VALID,0,VALID,23.0769,VALID,134,VALID,0,
2010-08-10, 01:53:04,VALID,1001.04,VALID,0,VALID,88.412,VALID,0,VALID,23.0769,VALID,134,VALID,0,
2010-08-10, 01:54:04,VALID,1001.02,VALID,0,VALID,88.6714,VALID,0,VALID,23.0769,VALID,134,VALID,0,
2010-08-10, 01:55:04,VALID,1001.01,VALID,0,VALID,88.7172,VALID,0,VALID,23.0573,VALID,134,VALID,0,
2010-08-10, 01:56:04,VALID,1000.97,VALID,0,VALID,88.6257,VALID,0,VALID,23.0378,VALID,134,VALID,0,
2010-08-10, 01:57:04,VALID,1000.98,VALID,0,VALID,88.7096,VALID,0,VALID,23.0183,VALID,134,VALID,0.224219,
2010-08-10, 01:58:04,VALID,1000.93,VALID,0,VALID,88.9614,VALID,0,VALID,23.0183,VALID,134,VALID,0.1375,
2010-08-10, 01:59:04,VALID,1000.92,VALID,0,VALID,88.9766,VALID,0,VALID,23.0183,VALID,134,VALID,0,
2010-08-10, 02:00:04,VALID,1000.92,VALID,0,VALID,88.9919,VALID,0,VALID,22.9988,VALID,134,VALID,0,
2010-08-10, 02:01:04,VALID,1000.87,VALID,0,VALID,89.2589,VALID,0,VALID,22.9581,VALID,134,VALID,0,
2010-08-10, 02:02:04,VALID,1000.88,VALID,0,VALID,89.2208,VALID,0,VALID,22.9598,VALID,134,VALID,0,
2010-08-10, 02:03:04,VALID,1000.86,VALID,0,VALID,89.4115,VALID,0,VALID,22.9598,VALID,134,VALID,0,
2010-08-10, 02:04:04,VALID,1000.84,VALID,0,VALID,89.6633,VALID,0,VALID,22.9598,VALID,134,VALID,0,
2010-08-10, 02:05:04,VALID,1000.81,VALID,0,VALID,89.8311,VALID,0,VALID,22.9598,VALID,134,VALID,0,
2010-08-10, 02:06:04,VALID,1000.8,VALID,0,VALID,89.938,VALID,0,VALID,22.9208,VALID,134,VALID,0,
2010-08-10, 02:07:04,VALID,1000.79,VALID,0,VALID,89.9685,VALID,0,VALID,22.9013,VALID,134,VALID,0,
2010-08-10, 02:08:04,VALID,1000.79,VALID,0,VALID,89.8769,VALID,0,VALID,22.8818,VALID,134,VALID,0,
2010-08-10, 02:09:04,VALID,1000.78,VALID,0,VALID,89.9303,VALID,0,VALID,22.8818,VALID,134,VALID,0,
2010-08-10, 02:10:04,VALID,1000.78,VALID,0,VALID,89.8159,VALID,0,VALID,22.8623,VALID,134,VALID,0,
2010-08-10, 02:11:04,VALID,1000.76,VALID,0,VALID,89.8083,VALID,0,VALID,22.8623,VALID,134,VALID,0,
2010-08-10, 02:12:04,VALID,1000.77,VALID,0,VALID,89.7625,VALID,0,VALID,22.8427,VALID,134,VALID,0,
2010-08-10, 02:13:04,VALID,1000.79,VALID,0,VALID,89.854,VALID,0,VALID,22.8623,VALID,134,VALID,0,
2010-08-10, 02:14:04,VALID,1000.77,VALID,0,VALID,89.587,VALID,0,VALID,22.8427,VALID,134,VALID,0,
2010-08-10, 02:15:04,VALID,1000.78,VALID,0,VALID,89.2742,VALID,0,VALID,22.8427,VALID,134,VALID,0,
2010-08-10, 02:16:04,VALID,1000.75,VALID,0,VALID,88.9385,VALID,0,VALID,22.8818,VALID,134,VALID,0,
2010-08-10, 02:17:04,VALID,1000.76,VALID,0,VALID,89.3963,VALID,0,VALID,22.9208,VALID,102,VALID,0.49375,
2010-08-10, 02:18:04,VALID,1000.75,VALID,0,VALID,89.4802,VALID,0,VALID,22.9208,VALID,98,VALID,0.866797,
2010-08-10, 02:19:04,VALID,1000.73,VALID,0,VALID,89.7701,VALID,0,VALID,22.9013,VALID,86,VALID,0.898047,
2010-08-10, 02:20:04,VALID,1000.72,VALID,0,VALID,90.1592,VALID,0,VALID,22.9013,VALID,85,VALID,0.747266,
2010-08-10, 02:21:04,VALID,1000.72,VALID,0,VALID,90.5788,VALID,0,VALID,22.9013,VALID,85,VALID,0.530469,
2010-08-10, 02:22:04,VALID,1000.72,VALID,0,VALID,90.9146,VALID,0,VALID,22.8818,VALID,85,VALID,0.49375,
2010-08-10, 02:23:04,VALID,1000.68,VALID,0,VALID,91.1129,VALID,0,VALID,22.8623,VALID,85,VALID,0.653906,
2010-08-10, 02:24:04,VALID,1000.68,VALID,0,VALID,91.2731,VALID,0,VALID,22.8427,VALID,85,VALID,0.757422,
2010-08-10, 02:25:04,VALID,1000.66,VALID,0,VALID,91.4181,VALID,0,VALID,22.8232,VALID,86,VALID,1.07227,
2010-08-10, 02:26:04,VALID,1000.67,VALID,0,VALID,91.4639,VALID,0,VALID,22.7825,VALID,88,VALID,1.06758,
2010-08-10, 02:27:04,VALID,1000.64,VALID,0,VALID,91.4791,VALID,0,VALID,22.7825,VALID,88,VALID,0.814453,
2010-08-10, 02:28:04,VALID,1000.67,VALID,0,VALID,91.4181,VALID,0,VALID,22.7825,VALID,90,VALID,0.669531,
2010-08-10, 02:29:04,VALID,1000.66,VALID,0,VALID,91.3418,VALID,0,VALID,22.8037,VALID,106,VALID,0.55,
2010-08-10, 02:30:04,VALID,1000.67,VALID,0,VALID,91.2274,VALID,0,VALID,22.8037,VALID,104,VALID,0.456641,
2010-08-10, 02:31:04,VALID,1000.7,VALID,0,VALID,91.09,VALID,0,VALID,22.802,VALID,104,VALID,0,
2010-08-10, 02:32:04,VALID,1000.72,VALID,0,VALID,91.0366,VALID,0,VALID,22.825,VALID,104,VALID,0.130859,
2010-08-10, 02:33:04,VALID,1000.76,VALID,0,VALID,90.9985,VALID,0,VALID,22.8232,VALID,104,VALID,0.405859,
2010-08-10, 02:34:04,VALID,1000.73,VALID,0,VALID,90.9527,VALID,0,VALID,22.8427,VALID,104,VALID,0.402734,
2010-08-10, 02:35:04,VALID,1000.72,VALID,0,VALID,91.0443,VALID,0,VALID,22.864,VALID,104,VALID,0.586328,
2010-08-10, 02:36:04,VALID,1000.73,VALID,0,VALID,90.9756,VALID,0,VALID,22.8623,VALID,104,VALID,0.451953,
2010-08-10, 02:37:04,VALID,1000.73,VALID,0,VALID,90.9451,VALID,0,VALID,22.8427,VALID,104,VALID,0.423047,
2010-08-10, 02:38:04,VALID,1000.7,VALID,0,VALID,90.9146,VALID,0,VALID,22.8623,VALID,104,VALID,0.0597656,
2010-08-10, 02:39:04,VALID,1000.66,VALID,0,VALID,90.9222,VALID,0,VALID,22.8427,VALID,104,VALID,0.0214844,
2010-08-10, 02:40:04,VALID,1000.66,VALID,0,VALID,90.8535,VALID,0,VALID,22.8427,VALID,104,VALID,0.169922,
2010-08-10, 02:41:04,VALID,1000.63,VALID,0,VALID,90.8459,VALID,0,VALID,22.8427,VALID,104,VALID,0,
2010-08-10, 02:42:04,VALID,1000.64,VALID,0,VALID,90.7467,VALID,0,VALID,22.8427,VALID,104,VALID,0.0734375,
2010-08-10, 02:43:04,VALID,1000.62,VALID,0,VALID,90.5941,VALID,0,VALID,22.8835,VALID,104,VALID,0.387109,
2010-08-10, 02:44:04,VALID,1000.61,VALID,0,VALID,90.3576,VALID,0,VALID,22.903,VALID,104,VALID,0.289453,
2010-08-10, 02:45:04,VALID,1000.57,VALID,0,VALID,90.1287,VALID,0,VALID,22.9208,VALID,104,VALID,0.286719,
2010-08-10, 02:46:04,VALID,1000.57,VALID,0,VALID,89.9685,VALID,0,VALID,22.9598,VALID,104,VALID,0.324609,
2010-08-10, 02:47:04,VALID,1000.54,VALID,0,VALID,89.793,VALID,0,VALID,22.9793,VALID,104,VALID,0.025,
2010-08-10, 02:48:04,VALID,1000.55,VALID,0,VALID,89.793,VALID,0,VALID,22.9793,VALID,104,VALID,0.169141,
2010-08-10, 02:49:04,VALID,1000.56,VALID,0,VALID,89.8998,VALID,0,VALID,22.9988,VALID,104,VALID,0.334766,
2010-08-10, 02:50:04,VALID,1000.53,VALID,0,VALID,90.0524,VALID,0,VALID,22.9776,VALID,104,VALID,0.302734,
2010-08-10, 02:51:04,VALID,1000.54,VALID,0,VALID,90.0677,VALID,0,VALID,22.9988,VALID,104,VALID,0.565234,
2010-08-10, 02:52:04,VALID,1000.5,VALID,0,VALID,89.9074,VALID,0,VALID,22.9988,VALID,104,VALID,0.603906,
2010-08-10, 02:53:04,VALID,1000.51,VALID,0,VALID,89.8235,VALID,0,VALID,23.0183,VALID,104,VALID,0.433203,
2010-08-10, 02:54:04,VALID,1000.5,VALID,0,VALID,89.7854,VALID,0,VALID,23.0396,VALID,104,VALID,0.1125,
2010-08-10, 02:55:04,VALID,1000.47,VALID,0,VALID,89.8083,VALID,0,VALID,22.9988,VALID,104,VALID,0.0347656,
2010-08-10, 02:56:04,VALID,1000.44,VALID,0,VALID,89.9151,VALID,0,VALID,22.9793,VALID,104,VALID,0.158203,
2010-08-10, 02:57:04,VALID,1000.44,VALID,0,VALID,90.0143,VALID,0,VALID,22.9598,VALID,104,VALID,0,
2010-08-10, 02:58:04,VALID,1000.43,VALID,0,VALID,90.144,VALID,0,VALID,22.9598,VALID,104,VALID,0.0445312,
2010-08-10, 02:59:04,VALID,1000.4,VALID,0,VALID,90.1516,VALID,0,VALID,22.9598,VALID,104,VALID,0,
2010-08-10, 03:00:04,VALID,1000.4,VALID,0,VALID,90.205,VALID,0,VALID,22.9403,VALID,104,VALID,0,
2010-08-10, 03:01:04,VALID,1000.37,VALID,0,VALID,90.2355,VALID,0,VALID,22.9208,VALID,104,VALID,0,
2010-08-10, 03:02:04,VALID,1000.37,VALID,0,VALID,90.2584,VALID,0,VALID,22.8995,VALID,104,VALID,0,
2010-08-10, 03:03:04,VALID,1000.34,VALID,0,VALID,90.3805,VALID,0,VALID,22.9013,VALID,104,VALID,0,
2010-08-10, 03:04:04,VALID,1000.34,VALID,0,VALID,90.5026,VALID,0,VALID,22.9013,VALID,104,VALID,0,
2010-08-10, 03:05:04,VALID,1000.33,VALID,0,VALID,90.556,VALID,0,VALID,22.9013,VALID,104,VALID,0,
2010-08-10, 03:06:04,VALID,1000.31,VALID,0,VALID,90.5102,VALID,0,VALID,22.88,VALID,104,VALID,0,
2010-08-10, 03:07:04,VALID,1000.35,VALID,0,VALID,90.5788,VALID,0,VALID,22.9013,VALID,104,VALID,0,
2010-08-10, 03:08:04,VALID,1000.34,VALID,0,VALID,90.5941,VALID,0,VALID,22.9013,VALID,104,VALID,0,
2010-08-10, 03:09:04,VALID,1000.36,VALID,0,VALID,90.6399,VALID,0,VALID,22.9013,VALID,104,VALID,0,
2010-08-10, 03:10:04,VALID,1000.31,VALID,0,VALID,90.7391,VALID,0,VALID,22.9013,VALID,104,VALID,0,
2010-08-10, 03:11:04,VALID,1000.33,VALID,0,VALID,90.7925,VALID,0,VALID,22.9208,VALID,104,VALID,0,
2010-08-10, 03:12:04,VALID,1000.3,VALID,0,VALID,90.7543,VALID,0,VALID,22.9208,VALID,104,VALID,0,
2010-08-10, 03:13:04,VALID,1000.32,VALID,0,VALID,90.7009,VALID,0,VALID,22.9208,VALID,104,VALID,0,
2010-08-10, 03:14:04,VALID,1000.31,VALID,0,VALID,90.7391,VALID,0,VALID,22.919,VALID,104,VALID,0,
2010-08-10, 03:15:04,VALID,1000.29,VALID,0,VALID,90.7314,VALID,0,VALID,22.919,VALID,104,VALID,0,
2010-08-10, 03:16:04,VALID,1000.33,VALID,0,VALID,90.7162,VALID,0,VALID,22.9598,VALID,104,VALID,0,
2010-08-10, 03:17:04,VALID,1000.29,VALID,0,VALID,90.6475,VALID,0,VALID,22.9793,VALID,104,VALID,0,
2010-08-10, 03:18:04,VALID,1000.29,VALID,0,VALID,90.5865,VALID,0,VALID,22.9793,VALID,104,VALID,0,
2010-08-10, 03:19:04,VALID,1000.31,VALID,0,VALID,90.6323,VALID,0,VALID,23.0183,VALID,104,VALID,0,
2010-08-10, 03:20:04,VALID,1000.26,VALID,0,VALID,90.4644,VALID,0,VALID,23.0183,VALID,104,VALID,0,
2010-08-10, 03:21:04,VALID,1000.26,VALID,0,VALID,90.4415,VALID,0,VALID,23.0378,VALID,104,VALID,0,
2010-08-10, 03:22:04,VALID,1000.28,VALID,0,VALID,90.2889,VALID,0,VALID,23.0573,VALID,104,VALID,0,
2010-08-10, 03:23:04,VALID,1000.29,VALID,0,VALID,90.2584,VALID,0,VALID,23.0573,VALID,104,VALID,0.183594,
2010-08-10, 03:24:04,VALID,1000.27,VALID,0,VALID,90.3652,VALID,0,VALID,23.0361,VALID,71,VALID,0.515625,
2010-08-10, 03:25:04,VALID,1000.24,VALID,0,VALID,90.5102,VALID,0,VALID,23.0183,VALID,58,VALID,0.411328,
2010-08-10, 03:26:04,VALID,1000.22,VALID,0,VALID,90.6857,VALID,0,VALID,22.9793,VALID,58,VALID,0.224219,
2010-08-10, 03:27:04,VALID,1000.23,VALID,0,VALID,90.8535,VALID,0,VALID,22.9581,VALID,58,VALID,0,
2010-08-10, 03:28:04,VALID,1000.2,VALID,0,VALID,90.9603,VALID,0,VALID,22.9598,VALID,58,VALID,0,
2010-08-10, 03:29:04,VALID,1000.21,VALID,0,VALID,91.0595,VALID,0,VALID,22.9403,VALID,58,VALID,0,
2010-08-10, 03:30:04,VALID,1000.2,VALID,0,VALID,91.1587,VALID,0,VALID,22.9208,VALID,58,VALID,0,
2010-08-10, 03:31:04,VALID,1000.23,VALID,0,VALID,91.3037,VALID,0,VALID,22.88,VALID,58,VALID,0,
2010-08-10, 03:32:04,VALID,1000.21,VALID,0,VALID,91.4868,VALID,0,VALID,22.8818,VALID,58,VALID,0,
2010-08-10, 03:33:04,VALID,1000.2,VALID,0,VALID,91.5402,VALID,0,VALID,22.8623,VALID,58,VALID,0,
2010-08-10, 03:34:04,VALID,1000.19,VALID,0,VALID,91.5783,VALID,0,VALID,22.8427,VALID,58,VALID,0,
2010-08-10, 03:35:04,VALID,1000.18,VALID,0,VALID,91.6088,VALID,0,VALID,22.8427,VALID,58,VALID,0,
2010-08-10, 03:36:04,VALID,1000.2,VALID,0,VALID,91.6165,VALID,0,VALID,22.841,VALID,58,VALID,0,
2010-08-10, 03:37:04,VALID,1000.17,VALID,0,VALID,91.5631,VALID,0,VALID,22.8818,VALID,58,VALID,0.238672,
2010-08-10, 03:38:04,VALID,1000.14,VALID,0,VALID,91.4639,VALID,0,VALID,22.9013,VALID,58,VALID,0.0457031,
2010-08-10, 03:39:04,VALID,1000.16,VALID,0,VALID,91.3189,VALID,0,VALID,22.9403,VALID,58,VALID,0,
2010-08-10, 03:40:04,VALID,1000.13,VALID,0,VALID,91.2045,VALID,0,VALID,22.9793,VALID,109,VALID,0.39375,
2010-08-10, 03:41:04,VALID,1000.12,VALID,0,VALID,91.0519,VALID,0,VALID,23.0378,VALID,109,VALID,0,
2010-08-10, 03:42:04,VALID,1000.12,VALID,0,VALID,90.8459,VALID,0,VALID,23.0573,VALID,109,VALID,0,
2010-08-10, 03:43:04,VALID,1000.1,VALID,0,VALID,90.5178,VALID,0,VALID,23.0769,VALID,115,VALID,0,
2010-08-10, 03:44:04,VALID,1000.07,VALID,0,VALID,90.2203,VALID,0,VALID,23.1141,VALID,126,VALID,0,
2010-08-10, 03:45:04,VALID,1000.04,VALID,0,VALID,89.938,VALID,0,VALID,23.1744,VALID,132,VALID,0,
2010-08-10, 03:46:04,VALID,1000.08,VALID,0,VALID,89.7014,VALID,0,VALID,23.1939,VALID,134,VALID,0,
2010-08-10, 03:47:04,VALID,1000.07,VALID,0,VALID,89.4344,VALID,0,VALID,23.2329,VALID,162,VALID,0,
2010-08-10, 03:48:04,VALID,1000.03,VALID,0,VALID,89.2208,VALID,0,VALID,23.2719,VALID,162,VALID,0,
2010-08-10, 03:49:04,VALID,1000.04,VALID,0,VALID,88.9766,VALID,0,VALID,23.2915,VALID,162,VALID,0,
2010-08-10, 03:50:04,VALID,1000.03,VALID,0,VALID,88.7554,VALID,0,VALID,23.311,VALID,162,VALID,0,
2010-08-10, 03:51:04,VALID,1000,VALID,0,VALID,88.5112,VALID,0,VALID,23.35,VALID,162,VALID,0,